| time (UTC) | temp F | wind direction | speed MPH | gust MPH | rain 1hr in | rain 24hr in | rain mn in | humidity % | barometer mb |
| 20260508191535 | 66 | 227 | 12.0 | 28.0 | 0.00 | 0.00 | 0.00 | 24 | 1020.0 |
| 20260508183032 | 58 | 330 | 5.0 | 10.0 | 0.00 | 0.00 | 0.00 | 54 | 1019.9 |
| 20260508181531 | 54 | 349 | 3.0 | 7.0 | 0.00 | 0.00 | 0.00 | 60 | 1019.9 |
| 20260508174535 | 52 | 326 | 2.0 | 5.0 | 0.00 | 0.00 | 0.00 | 63 | 1020.0 |
| 20260508171531 | 52 | 360 | 2.0 | 4.0 | 0.00 | 0.00 | 0.00 | 64 | 1019.6 |
| 20260508170029 | 52 | 321 | 1.0 | 6.0 | 0.00 | 0.00 | 0.00 | 65 | 1019.6 |
| 20260508164536 | 52 | 334 | 2.0 | 6.0 | 0.00 | 0.00 | 0.00 | 65 | 1019.5 |
| 20260508163035 | 52 | 8 | 5.0 | 8.0 | 0.00 | 0.00 | 0.00 | 65 | 1019.7 |
| 20260508161531 | 53 | 352 | 8.0 | 13.0 | 0.00 | 0.00 | 0.00 | 65 | 1019.6 |
| 20260508160032 | 54 | 2 | 8.0 | 14.0 | 0.00 | 0.00 | 0.00 | 65 | 1019.5 |
| 20260508154608 | 54 | 1 | 9.0 | 16.0 | 0.00 | 0.00 | 0.00 | 65 | 1019.3 |
| 20260508153031 | 56 | 355 | 8.0 | 16.0 | 0.00 | 0.00 | 0.00 | 63 | 1019.1 |
| 20260508150034 | 54 | 347 | 1.0 | 6.0 | 0.00 | 0.00 | 0.00 | 65 | 1019.0 |
| 20260508143031 | 49 | 66 | 0.0 | 4.0 | 0.00 | 0.00 | 0.00 | 68 | 1018.6 |
| 20260508141528 | 48 | 130 | 2.0 | 5.0 | 0.00 | 0.00 | 0.00 | 68 | 1018.4 |
| 20260508140031 | 47 | 132 | 3.0 | 6.0 | 0.00 | 0.00 | 0.00 | 67 | 1018.2 |
| 20260508134530 | 46 | 143 | 3.0 | 6.0 | 0.00 | 0.00 | 0.00 | 67 | 1018.2 |
| 20260508133034 | 45 | 142 | 3.0 | 6.0 | 0.00 | 0.00 | 0.00 | 67 | 1018.1 |
| 20260508131535 | 45 | 169 | 3.0 | 6.0 | 0.00 | 0.00 | 0.00 | 66 | 1017.9 |
| 20260508130033 | 44 | 122 | 2.0 | 6.0 | 0.00 | 0.00 | 0.00 | 66 | 1017.7 |
| 20260508124538 | 43 | 133 | 3.0 | 7.0 | 0.00 | 0.00 | 0.00 | 64 | 1017.8 |
| 20260508123034 | 43 | 159 | 3.0 | 6.0 | 0.00 | 0.00 | 0.00 | 63 | 1017.8 |
| 20260508121531 | 42 | 159 | 3.0 | 7.0 | 0.00 | 0.00 | 0.00 | 63 | 1017.6 |
| 20260508120031 | 43 | 152 | 2.0 | 5.0 | 0.00 | 0.00 | 0.00 | 62 | 1017.6 |
| 20260508114532 | 43 | 143 | 3.0 | 6.0 | 0.00 | 0.00 | 0.00 | 58 | 1017.6 |
| 20260508113107 | 44 | 165 | 3.0 | 7.0 | 0.00 | 0.00 | 0.00 | 55 | 1017.5 |
| 20260508111535 | 45 | 162 | 3.0 | 6.0 | 0.00 | 0.00 | 0.00 | 55 | 1017.4 |
| 20260508110107 | 45 | 141 | 4.0 | 7.0 | 0.00 | 0.00 | 0.00 | 54 | 1017.3 |
| 20260508103151 | 43 | 138 | 6.0 | 10.0 | 0.00 | 0.00 | 0.00 | 56 | 1017.3 |
| 20260508103142 | 43 | 145 | 5.0 | 8.0 | 0.00 | 0.00 | 0.00 | 57 | 1017.4 |
| 20260508100032 | 43 | 142 | 5.0 | 8.0 | 0.00 | 0.00 | 0.00 | 57 | 1017.3 |
| 20260508094536 | 44 | 158 | 6.0 | 9.0 | 0.00 | 0.00 | 0.00 | 57 | 1017.3 |
| 20260508093034 | 44 | 138 | 5.0 | 9.0 | 0.00 | 0.00 | 0.00 | 58 | 1017.3 |
| 20260508091605 | 44 | 154 | 6.0 | 9.0 | 0.00 | 0.00 | 0.00 | 58 | 1017.3 |
| 20260508090031 | 44 | 165 | 6.0 | 9.0 | 0.00 | 0.00 | 0.00 | 58 | 1017.3 |
| 20260508084644 | 44 | 147 | 5.0 | 7.0 | 0.00 | 0.00 | 0.00 | 58 | 1017.3 |
| 20260508083034 | 44 | 153 | 5.0 | 9.0 | 0.00 | 0.00 | 0.00 | 58 | 1017.4 |
| 20260508081607 | 45 | 146 | 5.0 | 8.0 | 0.00 | 0.00 | 0.00 | 57 | 1017.4 |
| 20260508080037 | 46 | 152 | 5.0 | 8.0 | 0.00 | 0.00 | 0.00 | 57 | 1017.4 |
| 20260508074533 | 45 | 145 | 6.0 | 8.0 | 0.00 | 0.00 | 0.00 | 57 | 1017.4 |
| 20260508073035 | 45 | 157 | 6.0 | 9.0 | 0.00 | 0.00 | 0.00 | 58 | 1017.5 |
| 20260508071532 | 45 | 158 | 4.0 | 7.0 | 0.00 | 0.00 | 0.00 | 58 | 1017.5 |
| 20260508070030 | 44 | 151 | 6.0 | 9.0 | 0.00 | 0.00 | 0.00 | 58 | 1017.5 |
| 20260508064531 | 43 | 157 | 5.0 | 8.0 | 0.00 | 0.00 | 0.00 | 59 | 1017.6 |
| 20260508063036 | 43 | 162 | 4.0 | 7.0 | 0.00 | 0.00 | 0.00 | 59 | 1017.6 |
| 20260508061536 | 44 | 156 | 4.0 | 6.0 | 0.00 | 0.00 | 0.00 | 57 | 1017.7 |
| 20260508053031 | 45 | 171 | 5.0 | 6.0 | 0.00 | 0.00 | 0.00 | 52 | 1017.7 |
| 20260508051534 | 46 | 180 | 4.0 | 5.0 | 0.00 | 0.00 | 0.00 | 49 | 1017.7 |
| 20260508050035 | 47 | 183 | 3.0 | 5.0 | 0.00 | 0.00 | 0.00 | 45 | 1017.9 |
| 20260508044536 | 50 | 255 | 1.0 | 4.0 | 0.00 | 0.00 | 0.00 | 41 | 1017.7 |
| 20260508043106 | 51 | 358 | 1.0 | 6.0 | 0.00 | 0.00 | 0.00 | 40 | 1017.6 |
| 20260508041531 | 53 | 38 | 1.0 | 6.0 | 0.00 | 0.00 | 0.00 | 38 | 1017.5 |
| 20260508040031 | 55 | 26 | 3.0 | 7.0 | 0.00 | 0.00 | 0.00 | 38 | 1017.2 |
| 20260508030031 | 60 | 347 | 4.0 | 9.0 | 0.00 | 0.00 | 0.00 | 38 | 1016.6 |
| 20260508024534 | 60 | 326 | 5.0 | 13.0 | 0.00 | 0.00 | 0.00 | 38 | 1016.6 |
| 20260508023030 | 62 | 347 | 5.0 | 10.0 | 0.00 | 0.00 | 0.00 | 35 | 1016.5 |
| 20260508021531 | 63 | 334 | 3.0 | 9.0 | 0.00 | 0.00 | 0.00 | 32 | 1016.4 |
| 20260508020052 | 65 | 283 | 6.0 | 15.0 | 0.00 | 0.00 | 0.00 | 29 | 1016.2 |
| 20260508014531 | 67 | 291 | 8.0 | 20.0 | 0.00 | 0.00 | 0.00 | 29 | 1016.1 |
| 20260508013035 | 67 | 279 | 8.0 | 17.0 | 0.00 | 0.00 | 0.00 | 28 | 1016.2 |
| 20260508011534 | 68 | 273 | 10.0 | 25.0 | 0.00 | 0.00 | 0.00 | 26 | 1016.3 |
| 20260508010031 | 68 | 285 | 12.0 | 23.0 | 0.00 | 0.00 | 0.00 | 26 | 1016.3 |
| 20260508004647 | 69 | 279 | 11.0 | 23.0 | 0.00 | 0.00 | 0.00 | 26 | 1016.4 |
| 20260508001535 | 71 | 280 | 9.0 | 20.0 | 0.00 | 0.00 | 0.00 | 25 | 1016.5 |
| 20260508000032 | 72 | 273 | 8.0 | 22.0 | 0.00 | 0.00 | 0.00 | 24 | 1016.5 |
| 20260507234608 | 73 | 265 | 8.0 | 21.0 | 0.00 | 0.00 | 0.00 | 25 | 1016.5 |
| 20260507231528 | 73 | 266 | 7.0 | 17.0 | 0.00 | 0.00 | 0.00 | 25 | 1016.6 |
| 20260507230031 | 72 | 282 | 8.0 | 19.0 | 0.00 | 0.00 | 0.00 | 25 | 1016.7 |
| 20260507224543 | 72 | 289 | 7.0 | 20.0 | 0.00 | 0.00 | 0.00 | 25 | 1016.8 |
| 20260507221536 | 71 | 295 | 7.0 | 15.0 | 0.00 | 0.00 | 0.00 | 26 | 1017.3 |
| 20260507220033 | 72 | 268 | 8.0 | 18.0 | 0.00 | 0.00 | 0.00 | 26 | 1017.4 |
| 20260507213040 | 70 | 325 | 9.0 | 18.0 | 0.00 | 0.00 | 0.00 | 30 | 1017.4 |
| 20260507213035 | 68 | 342 | 10.0 | 24.0 | 0.00 | 0.00 | 0.00 | 32 | 1017.5 |
| 20260507210030 | 70 | 357 | 12.0 | 21.0 | 0.00 | 0.00 | 0.00 | 34 | 1017.6 |
| 20260507204535 | 70 | 359 | 10.0 | 18.0 | 0.00 | 0.00 | 0.00 | 33 | 1017.7 |
| 20260507203036 | 70 | 344 | 11.0 | 18.0 | 0.00 | 0.00 | 0.00 | 29 | 1017.9 |
| 20260507201537 | 71 | 337 | 9.0 | 19.0 | 0.00 | 0.00 | 0.00 | 29 | 1018.1 |